Zurück zum Katalog

FREGAT R/B

AktivHEO
NORAD 44553·ROCKET BODY·🇷🇺 Russia

Gestartet Sep 26, 2019 von Plesetsk Cosmodrome

Loading…

Nächste Überflüge (nächste 24 Stunden)

TLE

AktuellSource: Space-Track

Epoche: Sep 13, 2026, 02:17 UTC

1 44553U 19065B   26256.09537979 -.00000935  00000-0  00000+0 0  9999
2 44553  63.3334 144.2291 6761537 260.4991  23.2551  2.01544382 51276

Verfolge FREGAT R/B in Echtzeit mit AllMySat

Download on the App Store